Lid_Strength_Index
-1 -1 -1 2 6 6 8 9 6 7 7 5 4 6 6 5 7 10 1 -0 -1 -1 -1 -1 -1 -1 -1 -1 -1 -1 -1 -1 -1 -1 -1 -1 -1 -1 -1 -1 -1 -1 -1 -1 -1 -1 -1 -1 -1
-1 -0 1 3 7 9 9 7 7 6 5 4 5 5 6 7 3 2 2 -0 -1 -1 -2 -2 -1 -1 -1 -1 -1 -1 -1 -1 -1 -1 -1 -1 -1 -1 -1 -1 -1 -1 -1 -1 -1 -1 -1 -1 -1
-0 0 3 4 7 9 9 6 6 5 4 5 5 4 5 6 3 2 -0 -1 -1 -1 -1 -2 -1 -1 -1 -1 -1 -1 -1 -1 -1 -1 -1 -1 -1 -1 -1 -1 -1 -1 -1 -1 -1 -1 -1 -1 -1
1 2 3 6 8 7 7 6 5 5 5 4 4 6 3 2 2 1 -1 -1 -1 -1 -1 -2 -1 -1 -1 -1 -1 -1 -1 -1 -1 -1 -1 -1 -1 -1 -1 -1 -1 -1 -1 -1 -1 -1 -1 -1 -1
2 2 5 7 8 7 5 5 5 6 5 5 4 6 5 2 0 -0 -0 -1 -0 -1 -1 -1 -1 -1 -1 -1 -1 -1 -1 -1 -1 -1 -1 -1 -1 -1 -1 -1 -1 -1 -1 -1 -1 -1 -2 -2 -1
3 3 6 8 7 6 5 5 5 5 5 5 5 5 5 1 1 0 -1 -1 -1 -1 -1 -2 -1 -1 -1 -1 -1 -1 -1 -1 -1 -1 -1 -1 -1 -1 -1 -1 -1 -1 -1 -1 -1 -2 -3 -3 -2
4 5 7 7 7 7 6 4 5 5 5 5 3 6 4 2 1 -0 -0 -1 -1 -1 -1 -2 -2 -2 -1 -1 -1 -1 -1 -1 -1 -1 -1 -1 -2 -1 -1 -1 -1 -2 -1 -1 -1 -2 -3 -2 -1
4 4 7 6 7 7 5 5 4 5 5 3 3 5 5 2 0 -0 -0 -0 -1 -1 -1 -1 -1 -2 -2 -2 -1 -1 -1 -1 -1 -1 -1 -2 -2 -4 -3 -3 -3 -3 -2 -1 -1 -2 -2 -2 -2
3 6 7 7 7 6 4 6 4 3 4 3 3 3 2 1 0 1 1 0 0 -0 -1 -1 -1 -1 -2 -2 -1 -1 -1 -1 -1 -2 -2 -2 -3 -2 -2 -3 -2 -2 -2 -2 -2 -2 -2 -2 -2
4 6 6 5 4 5 5 5 5 5 5 4 4 2 2 1 1 2 2 2 1 1 -0 -1 -1 -1 -1 -1 -2 -2 -2 -2 -2 -2 -2 -2 -2 -2 -2 -2 -2 -2 -2 -2 -4 -4 -3 -3 -2
4 6 5 4 4 4 4 5 4 5 6 4 4 3 2 2 2 2 2 1 1 0 -0 -1 -1 -1 -1 -1 -2 -2 -2 -2 -2 -2 -2 -2 -2 -2 -2 -2 -2 -2 -3 -2 -2 -2 -2 -2 -2
6 4 5 4 4 4 5 4 5 4 4 3 3 2 2 2 2 2 2 1 1 1 0 -0 -1 -1 -1 -1 -1 -2 -1 -2 -2 -3 -2 -2 -1 -2 -2 -1 -2 -2 -2 -2 -2 -2 -2 -2 -2
5 5 5 5 4 4 4 5 5 5 3 3 2 2 2 2 2 2 1 1 1 1 0 -0 -1 -1 -1 -1 -1 -1 -1 -1 -2 -2 -3 -2 -1 -1 -1 -2 -2 -2 -2 -2 -1 -2 -2 -1 -2
4 4 5 4 4 4 5 5 5 4 3 3 3 3 2 2 2 2 2 2 1 1 0 0 -0 -1 -1 -1 -1 -2 -2 -2 -2 -3 -2 -2 -2 -2 -1 -1 -1 -1 -1 -1 -1 -1 -1 -1 -1
4 5 5 4 4 5 4 6 6 3 3 4 4 3 3 2 2 2 2 2 1 0 0 0 -0 -1 -1 -1 -1 -2 -2 -2 -3 -3 -2 -1 -1 -1 -2 -1 -1 -1 -1 -1 -1 -1 -1 -1 -1
5 5 7 5 4 5 5 7 5 3 4 4 4 4 3 3 2 2 1 1 0 0 0 -0 -0 -1 -1 -1 -1 -2 -2 -3 -2 -2 -2 -1 -1 -2 -2 -1 -1 -2 -2 -1 -0 -0 0 -0 -0
6 8 7 7 4 5 5 6 4 4 4 4 4 4 4 3 2 2 1 1 0 0 0 -0 -1 -1 -1 -1 -2 -2 -1 -2 -2 -3 -2 -2 -1 -1 -2 -1 -2 -2 -1 -1 -0 0 -0 1 0
8 8 7 7 6 5 6 6 5 4 5 5 5 4 4 3 3 2 1 1 0 1 -0 -1 -1 -1 -1 -1 -1 -1 -2 -2 -2 -2 -2 -1 -2 -2 -2 -2 -2 -2 -1 -0 -0 -1 -0 0 0
6 7 8 6 5 6 6 6 6 5 5 5 5 5 4 4 2 2 1 1 1 1 0 -0 -0 -1 -0 -0 0 0 0 -0 -1 -1 -1 -1 -2 -2 -2 -1 -2 -2 -1 -1 -1 -0 0 1 -0
6 7 7 6 6 6 6 6 6 5 5 5 5 5 4 4 3 2 2 1 1 1 1 0 -0 -1 -0 -0 -1 -0 -0 -0 -1 -1 -1 -2 -2 -2 -2 -2 -1 -1 -1 -1 -1 0 2 2 1
7 7 7 7 6 6 6 7 7 6 5 5 4 4 4 4 3 3 2 2 1 1 1 0 -0 -1 -1 -1 -1 -1 -1 -0 -0 -0 -1 -1 -2 -2 -2 -2 -1 -1 -1 0 -0 0 2 3 1
8 6 6 7 8 9 6 10 8 6 6 5 4 4 3 3 2 2 2 2 1 1 1 1 0 -0 -1 -1 -0 0 1 1 0 -0 -1 -1 -2 -2 -2 -2 -2 -1 -0 0 1 1 2 2 3
7 6 6 7 7 8 8 9 9 6 7 6 5 4 3 3 2 2 2 1 1 1 0 -0 0 -0 -0 -0 -0 0 0 0 -0 -0 -1 -1 -2 -2 -2 -1 -1 -1 0 -0 1 1 2 1 1
5 6 7 7 7 10 9 9 9 8 7 6 5 4 3 3 2 2 1 1 1 0 -0 -0 1 0 0 -0 0 -0 -0 0 0 0 0 -0 -0 -1 -1 -0 -1 -1 -1 -0 0 1 0 0 1
6 7 10 11 10 11 8 9 9 6 5 5 5 4 3 3 3 2 2 2 1 1 1 -0 1 1 0 0 -0 0 -0 -0 -0 -0 0 0 0 0 -0 -1 -1 -1 -1 0 0 0 0 0 1
7 7 10 14 12 11 8 10 9 5 4 4 3 3 3 3 2 2 2 1 1 1 1 1 1 1 0 0 0 -1 -1 -0 -0 -1 -0 -0 0 1 -1 -1 -1 -0 0 0 -0 0 1 1 1
8 9 7 10 9 11 9 8 6 5 5 4 4 3 3 3 3 2 2 1 1 1 2 1 1 1 0 -0 -1 -0 -1 -1 -0 -1 -1 -0 -1 -0 -0 -1 -1 0 0 0 0 2 2 1 1
6 6 10 8 13 14 10 10 9 7 6 5 4 4 3 3 3 2 2 2 1 1 0 1 0 0 0 0 -1 -0 -1 -1 -1 -1 -0 -0 -0 -0 -0 -1 0 1 1 1 1 2 2 1 0
7 8 8 8 10 13 13 11 6 6 5 5 5 4 4 3 3 2 1 1 1 1 1 0 0 1 0 -0 -0 -0 0 -1 -1 -0 0 -0 -1 -1 -0 0 1 2 2 1 2 2 1 1 1
6 7 8 10 11 9 11 10 5 5 4 4 4 4 3 3 3 2 2 1 1 1 1 1 0 0 0 0 0 1 -1 -0 -0 1 -0 -1 -0 -0 -0 1 2 2 2 2 2 2 1 1 1